Location: Lake Almanor
(40.2485°N, 121.1442°W)
Time: 01:35:40
(UTC-08:00)

STARLINK-1117 - Pass Details

Date: 01 February 2020
Orbit: 348 x 351 km, 53.0° (Epoch: 22 February)

Event Time Altitude Azimuth Distance (km) Brightness Sun altitude
Rises 18:34:24 0° 307° (NW) 2,174 7.3 -13.9°
Reaches altitude 10° 18:36:26 10° 305° (NW) 1,327 6.2 -14.3°
Maximum altitude 18:39:22 69° 222° (SW) 383 2.9 -14.8°
Enters shadow 18:41:15 20° 141° (SE) 896 4.4 -15.2°
